Wind_Speed
23 24 24 24 25 23 23 23 21 19 18 18 17 16 14 13 12 11 10 8 9 9 8 7 6 6 6 5 4 4 3 3 3 4 4 3 3 4 4 4 5 6 7 8 8 8 9 9 9
21 22 23 24 24 24 24 23 20 19 19 18 16 15 14 13 12 12 11 10 10 10 9 8 7 6 5 5 5 4 4 4 4 4 3 3 3 4 5 5 5 6 7 8 8 9 9 9 8
19 20 23 24 23 24 25 23 22 21 20 18 17 15 14 12 12 12 11 11 11 10 9 9 8 7 6 5 5 5 4 4 3 3 3 3 3 4 5 5 5 6 6 7 9 9 9 8 9
17 20 23 23 24 25 25 24 23 21 20 19 18 16 14 14 13 13 12 12 11 11 10 9 9 8 7 6 5 5 4 4 3 3 3 3 3 3 4 4 5 5 5 7 8 8 8 8 8
16 18 22 22 24 25 24 24 23 21 20 20 19 17 16 15 15 13 13 13 12 11 10 10 9 8 7 7 6 5 4 4 3 3 3 3 3 3 4 5 5 6 6 7 8 8 8 8 8
16 17 20 22 23 23 23 23 21 20 20 20 20 19 17 17 16 15 15 14 13 12 12 11 9 8 7 6 5 4 4 3 3 3 3 2 3 3 4 5 5 6 7 7 7 8 8 8 8
16 17 19 21 21 21 21 22 21 20 20 20 20 20 19 18 17 17 16 15 14 13 12 11 10 8 7 6 5 4 3 3 3 3 3 2 3 3 4 5 5 6 7 7 7 7 7 8 7
17 16 18 19 20 19 20 20 21 22 21 21 21 21 20 19 18 17 16 16 15 15 13 12 10 8 7 6 5 4 4 3 3 2 3 3 3 4 4 5 6 6 6 6 7 7 7 7 7
15 14 15 17 19 18 18 19 21 23 22 21 21 20 20 20 19 18 18 17 16 16 14 13 11 9 7 6 5 5 4 3 2 2 3 4 4 4 5 5 5 6 6 6 6 6 6 6 6
12 12 13 15 17 17 18 19 21 22 21 21 21 20 20 20 20 19 19 18 17 16 15 14 12 11 9 7 6 5 4 3 2 3 4 4 4 4 4 5 5 5 5 5 5 5 5 5 5
10 10 11 13 15 17 17 19 19 20 20 19 19 19 19 19 19 19 18 18 18 17 16 14 13 12 10 8 7 6 5 4 3 3 4 4 4 4 4 5 5 5 4 4 4 4 4 4 4
8 8 8 11 13 15 17 18 18 17 18 18 18 18 18 19 19 20 19 19 19 17 16 15 13 12 11 9 8 7 6 5 4 4 3 4 4 4 5 5 6 5 5 4 4 4 4 4 4
8 7 7 8 10 13 16 17 17 17 18 18 17 17 17 18 19 20 20 19 19 18 17 16 14 12 11 10 9 7 6 5 4 4 3 3 4 5 5 5 5 5 5 4 3 4 3 3 3
6 5 5 6 9 12 14 15 15 16 17 17 17 16 17 19 19 20 20 19 19 19 18 17 16 14 13 11 10 9 7 6 4 3 2 3 3 4 4 5 5 5 4 4 3 4 3 3 3
5 3 2 4 6 10 12 13 14 15 16 16 16 17 18 19 19 19 20 19 19 19 18 18 16 15 13 11 11 9 8 7 6 4 3 3 3 3 3 4 4 4 5 4 4 4 3 3 3
6 3 2 1 4 7 10 12 13 13 14 15 15 16 17 17 18 18 19 19 18 18 18 17 16 15 13 11 10 9 8 7 6 4 2 2 2 3 3 4 4 4 4 4 4 4 4 5 4
8 4 2 1 4 5 8 12 13 13 12 14 15 15 15 15 16 17 18 18 18 18 17 17 16 15 13 11 10 9 8 7 6 4 2 1 2 3 3 3 3 4 4 4 5 5 6 6 5
8 4 3 2 3 5 8 10 12 11 11 13 14 14 14 14 15 16 16 17 17 17 17 17 16 15 13 11 10 8 7 6 5 3 2 1 1 3 3 3 4 4 4 4 5 5 6 6 6
9 6 4 3 3 5 8 10 11 10 10 11 11 13 13 13 14 14 15 16 16 16 16 17 16 14 13 11 10 9 7 6 5 4 2 1 1 3 3 4 4 4 4 5 5 6 6 6 6
10 8 6 4 5 6 7 8 9 10 10 10 10 12 13 12 12 13 13 14 15 15 15 16 15 14 13 11 10 9 7 6 5 4 3 1 0 1 2 3 3 4 4 5 5 7 7 7 7
12 10 9 7 8 9 9 8 10 10 11 10 10 11 12 11 11 12 13 13 13 13 14 14 14 13 13 12 10 9 8 6 4 3 3 1 0 1 2 2 3 3 4 5 5 6 7 7 8
14 13 11 9 9 10 11 10 10 10 10 10 10 10 10 11 10 11 12 12 13 13 12 13 13 13 12 12 11 8 7 6 5 4 3 2 1 1 2 3 3 4 5 5 6 6 7 8 8
18 15 14 13 12 12 13 13 12 11 10 10 10 10 9 9 9 10 11 12 12 12 12 12 12 12 12 11 11 9 7 6 6 5 4 3 3 2 3 4 4 5 6 6 7 7 7 8 8
19 18 18 17 16 15 14 15 14 12 11 11 10 10 10 9 9 10 11 11 11 11 11 11 12 12 12 12 11 9 8 7 5 4 4 4 3 3 4 5 5 6 6 7 8 8 8 9 9
21 20 19 19 19 16 15 16 14 11 12 12 11 10 10 9 9 10 12 12 11 11 11 11 11 12 12 12 11 9 8 7 6 5 5 4 4 4 4 5 5 6 7 7 8 9 10 10 11
20 21 20 19 17 15 14 15 14 13 12 12 11 11 9 9 8 9 11 11 11 11 10 11 11 12 12 12 11 9 8 8 7 6 6 6 5 5 5 5 6 7 7 8 9 9 10 11 12
20 20 19 19 18 17 16 14 14 13 13 11 10 10 9 8 9 9 9 10 11 11 11 11 11 12 12 11 11 10 9 8 8 7 6 6 6 6 7 7 8 8 8 9 10 11 11 12 13
22 20 20 21 20 19 17 14 13 14 14 13 13 10 9 8 8 9 9 10 11 11 12 11 11 11 11 11 11 10 9 8 8 7 7 7 7 7 7 8 8 9 10 11 11 12 12 13 14
22 22 23 23 22 21 20 18 15 15 14 13 12 12 11 9 8 10 10 11 11 11 12 12 11 11 11 11 11 10 9 8 8 7 7 7 7 8 9 9 10 11 12 12 12 12 13 14 15
22 22 23 25 24 23 23 21 16 15 15 14 14 12 12 10 10 11 11 11 11 12 12 11 11 11 11 11 11 10 10 9 8 8 8 8 9 9 10 10 10 11 12 12 13 13 13 14 15
Wind_Direction
66 58 52 50 45 43 46 48 47 48 47 45 40 39 40 40 43 46 47 52 59 65 68 72 76 84 86 81 74 67 73 91 100 99 97 96 98 107 121 127 125 130 135 135 130 126 122 121 117
69 61 54 49 44 43 47 47 46 45 47 48 44 41 41 42 44 46 48 49 56 62 65 67 72 83 84 80 73 70 77 86 94 99 102 102 101 104 111 121 128 132 134 134 129 124 123 123 119
70 61 54 49 46 45 46 45 44 43 44 47 46 44 45 47 47 47 49 51 56 60 62 63 68 75 78 81 77 77 81 86 98 102 98 101 105 103 112 119 129 132 130 132 132 129 126 125 122
69 58 53 47 47 45 46 46 43 42 41 44 45 45 46 49 49 48 50 53 55 58 61 64 66 70 74 79 83 83 85 87 93 108 107 108 108 111 117 121 125 126 128 132 131 129 128 127 124
65 58 50 46 46 44 44 45 42 40 38 43 46 45 46 52 51 50 51 53 55 57 60 60 61 65 68 73 77 79 83 83 88 106 106 106 108 113 127 127 126 122 121 127 127 127 125 122 120
64 57 49 42 43 44 42 43 39 38 37 41 46 47 47 52 52 51 53 55 54 55 56 58 58 60 63 67 70 73 82 86 92 106 104 108 122 128 129 129 128 126 123 123 123 125 126 121 117
57 51 47 40 40 42 41 39 39 39 37 39 44 46 46 50 52 52 52 54 54 53 53 55 54 56 57 62 68 69 75 93 97 108 105 104 121 136 137 135 131 128 125 126 125 122 123 120 119
61 52 45 39 32 37 40 37 37 38 38 39 43 44 44 48 52 53 51 52 53 52 51 53 54 56 56 60 68 71 76 96 112 121 122 120 124 133 134 133 132 132 130 130 129 125 124 121 120
57 49 43 36 29 34 38 35 36 37 37 39 42 42 44 46 50 51 50 51 51 50 50 52 54 56 57 61 68 73 76 88 116 132 142 139 135 131 134 133 134 137 135 136 138 133 128 123 122
64 52 42 35 28 30 36 35 35 36 37 36 41 43 43 45 49 51 50 50 48 46 47 48 50 54 57 59 61 71 75 82 108 131 143 147 149 142 142 141 144 144 142 142 146 145 138 135 129
70 62 43 30 25 26 30 30 34 35 38 36 38 39 41 45 47 50 50 50 48 44 43 43 47 54 56 59 62 69 73 78 95 123 136 146 155 156 153 153 155 154 150 151 153 151 145 146 139
84 67 41 22 21 20 22 24 31 34 37 36 34 35 39 43 46 48 49 48 46 46 44 45 49 50 52 55 59 63 66 75 92 111 119 133 154 159 155 157 160 159 158 158 165 166 156 155 157
101 78 49 28 21 23 24 22 26 33 35 35 33 33 36 41 43 45 46 45 43 44 43 44 47 48 50 52 55 61 67 77 88 97 111 139 164 166 159 167 166 170 170 164 168 169 169 169 168
123 93 59 37 20 20 21 18 20 27 31 32 33 36 39 38 41 42 42 42 41 41 41 41 42 43 44 46 50 59 65 69 75 83 109 134 156 163 159 168 176 184 186 181 176 171 178 190 192
156 126 63 28 6 10 13 8 13 20 21 26 30 37 38 37 39 40 38 38 38 38 38 36 36 37 39 43 49 55 58 65 70 71 78 111 148 164 168 174 182 190 194 193 189 190 197 207 207
167 164 153 43 1 1 358 357 8 13 14 19 25 30 34 34 37 37 36 36 35 34 33 32 31 32 35 40 44 47 49 52 55 55 59 121 157 171 172 177 190 195 198 202 206 213 214 218 222
167 166 170 248 325 347 343 341 350 2 11 16 18 22 29 30 34 35 34 32 31 31 30 29 28 28 30 34 35 37 39 41 41 39 46 130 173 176 179 185 200 207 210 213 224 233 228 228 232
179 190 196 232 295 325 332 332 336 351 3 7 7 12 19 21 26 29 29 28 27 27 26 26 26 25 26 26 26 29 31 32 32 31 39 65 179 194 199 205 210 217 215 217 232 235 233 234 233
195 196 199 239 281 304 314 317 324 336 346 359 359 359 7 14 18 21 23 23 23 24 23 22 22 22 22 23 21 18 20 18 16 20 28 43 158 194 204 212 218 222 221 228 237 240 239 239 239
198 192 185 227 245 269 287 300 314 325 337 351 352 351 359 3 8 14 18 17 18 19 19 18 19 20 21 19 16 12 10 5 4 4 9 29 130 193 207 221 223 227 234 236 239 242 246 247 246
200 198 201 226 236 247 267 282 301 314 326 337 341 343 348 356 359 6 10 11 11 12 14 15 17 19 21 18 13 12 9 5 5 0 359 355 255 198 219 229 231 236 237 238 243 245 246 246 251
212 207 213 227 237 249 267 275 290 303 314 320 330 334 338 344 349 357 0 2 3 5 7 10 11 14 14 13 13 9 5 3 360 357 348 333 301 259 229 238 247 251 249 245 249 251 253 255 256
215 217 219 226 238 245 257 268 279 289 299 305 318 325 327 329 338 347 352 354 357 359 0 2 3 8 10 10 12 10 3 359 357 349 347 335 310 278 257 258 261 265 261 257 259 258 261 263 264
223 226 224 228 235 241 249 261 271 278 290 297 309 317 316 315 327 336 345 349 354 356 356 357 359 2 3 4 6 7 2 357 352 341 337 337 317 290 279 276 272 275 276 268 266 266 267 269 272
224 228 227 228 234 241 247 257 266 269 280 289 299 306 305 309 321 335 342 344 350 352 353 354 356 358 359 359 0 2 360 353 348 339 326 322 317 311 299 289 283 286 288 285 278 273 272 271 271
226 230 232 234 236 238 241 258 266 264 275 284 290 296 298 305 316 330 337 343 348 350 352 353 351 352 354 356 359 357 356 353 347 335 329 325 320 314 309 299 294 291 292 291 288 284 278 273 272
226 230 233 236 236 236 240 254 264 264 272 278 285 293 292 298 311 322 329 333 337 341 345 347 348 348 349 350 351 349 345 345 341 331 325 323 314 310 311 308 301 296 295 292 286 283 283 278 274
228 231 230 233 237 239 243 256 267 267 271 276 285 295 288 294 303 313 318 322 327 331 335 338 338 340 343 344 344 345 341 337 337 332 323 319 309 304 303 305 305 301 298 296 293 288 286 283 278
223 227 231 234 236 241 247 251 260 268 267 272 278 286 292 292 299 303 309 317 321 325 328 332 333 332 334 338 341 342 341 337 332 326 321 318 314 310 305 303 302 302 299 295 293 289 288 287 280
225 228 232 234 236 242 247 250 256 265 272 272 275 281 288 288 285 293 302 310 315 320 325 326 327 331 334 337 338 339 337 333 329 323 316 315 314 311 308 306 301 302 302 298 295 292 290 289 287
Height
5919 5918 5917 5917 5915 5914 5912 5911 5909 5908 5907 5905 5903 5901 5900 5899 5898 5899 5896 5893 5892 5892 5891 5891 5891 5891 5891 5891 5891 5891 5892 5892 5891 5891 5891 5891 5891 5891 5891 5890 5891 5891 5891 5891 5891 5892 5892 5892 5892
5921 5921 5921 5919 5917 5916 5915 5913 5912 5911 5909 5907 5906 5904 5902 5900 5898 5897 5896 5894 5893 5893 5893 5892 5892 5892 5892 5892 5892 5892 5892 5892 5892 5893 5893 5892 5892 5892 5892 5891 5892 5892 5891 5892 5892 5893 5893 5893 5893
5924 5923 5923 5921 5920 5919 5917 5916 5914 5912 5910 5910 5908 5906 5905 5902 5899 5898 5897 5895 5894 5894 5894 5893 5893 5893 5893 5893 5893 5893 5893 5893 5893 5893 5893 5893 5893 5893 5893 5892 5892 5892 5892 5892 5893 5894 5894 5894 5894
5927 5926 5925 5924 5922 5921 5920 5918 5917 5915 5913 5911 5910 5908 5906 5903 5901 5899 5898 5897 5896 5895 5895 5894 5894 5894 5894 5894 5894 5894 5894 5894 5894 5894 5894 5894 5894 5894 5894 5894 5893 5893 5893 5893 5894 5895 5895 5895 5896
5930 5928 5927 5926 5924 5923 5922 5921 5920 5918 5915 5913 5912 5910 5908 5905 5902 5901 5899 5898 5897 5897 5896 5896 5895 5895 5895 5895 5895 5895 5895 5895 5895 5895 5895 5895 5895 5895 5895 5895 5895 5894 5895 5895 5895 5896 5896 5897 5897
5932 5931 5930 5928 5927 5926 5925 5924 5923 5921 5918 5915 5913 5911 5909 5907 5905 5902 5901 5900 5899 5898 5897 5897 5896 5896 5896 5895 5895 5896 5896 5896 5896 5896 5896 5896 5896 5896 5896 5896 5896 5896 5896 5896 5897 5897 5897 5898 5898
5935 5934 5932 5931 5930 5929 5928 5927 5926 5923 5919 5917 5915 5913 5911 5909 5906 5904 5903 5901 5900 5899 5898 5898 5897 5897 5896 5896 5896 5896 5896 5896 5896 5897 5897 5897 5897 5897 5897 5897 5897 5897 5897 5897 5898 5898 5899 5899 5899
5936 5937 5935 5934 5933 5932 5931 5929 5927 5924 5921 5919 5917 5915 5913 5911 5909 5907 5905 5903 5902 5901 5900 5899 5898 5897 5897 5896 5896 5896 5896 5896 5896 5897 5897 5897 5897 5897 5898 5898 5898 5898 5898 5898 5899 5899 5900 5900 5900
5938 5939 5937 5936 5936 5935 5933 5931 5929 5926 5924 5921 5919 5917 5916 5913 5911 5909 5907 5905 5903 5902 5901 5900 5899 5898 5897 5897 5897 5897 5896 5896 5897 5897 5897 5897 5898 5898 5898 5899 5899 5899 5899 5900 5900 5900 5901 5901 5901
5940 5940 5939 5939 5939 5937 5935 5934 5931 5928 5926 5923 5922 5920 5917 5915 5913 5911 5909 5907 5905 5904 5902 5901 5899 5898 5897 5897 5897 5896 5896 5896 5897 5897 5897 5897 5898 5899 5899 5899 5900 5900 5900 5901 5901 5901 5901 5902 5902
5942 5942 5941 5940 5940 5939 5937 5936 5933 5931 5929 5926 5924 5922 5920 5918 5915 5913 5912 5910 5908 5906 5904 5902 5900 5899 5898 5898 5897 5897 5897 5897 5897 5897 5897 5898 5898 5898 5899 5900 5900 5900 5901 5901 5901 5902 5902 5902 5902
5943 5943 5943 5942 5942 5941 5940 5938 5936 5934 5932 5930 5927 5925 5923 5920 5918 5916 5913 5912 5910 5908 5906 5904 5902 5901 5899 5898 5898 5897 5897 5897 5897 5897 5897 5897 5898 5898 5899 5900 5900 5901 5901 5901 5902 5902 5902 5903 5903
5944 5944 5944 5944 5944 5943 5942 5940 5939 5937 5935 5932 5930 5928 5925 5922 5920 5917 5915 5913 5912 5910 5908 5906 5904 5902 5901 5899 5898 5897 5897 5898 5897 5897 5897 5898 5898 5898 5899 5900 5901 5901 5901 5902 5902 5902 5903 5903 5903
5944 5944 5945 5945 5945 5944 5943 5943 5941 5939 5936 5934 5932 5930 5927 5925 5922 5919 5917 5915 5913 5911 5909 5907 5905 5904 5902 5900 5899 5898 5898 5898 5898 5897 5897 5897 5898 5899 5899 5900 5900 5901 5901 5902 5902 5902 5902 5903 5903
5945 5946 5946 5946 5945 5945 5945 5944 5942 5940 5938 5936 5933 5931 5928 5926 5924 5921 5919 5917 5915 5913 5911 5909 5907 5905 5903 5902 5901 5900 5899 5899 5898 5898 5898 5898 5898 5899 5899 5899 5900 5901 5901 5901 5902 5902 5902 5903 5903
5945 5946 5947 5947 5946 5946 5947 5945 5943 5941 5939 5937 5934 5932 5930 5928 5925 5923 5921 5919 5917 5914 5912 5910 5908 5906 5904 5903 5902 5901 5900 5899 5899 5898 5898 5898 5898 5898 5899 5899 5900 5900 5901 5901 5902 5902 5902 5902 5902
5945 5946 5946 5947 5946 5945 5946 5944 5942 5941 5939 5937 5935 5933 5931 5929 5926 5924 5922 5920 5918 5916 5913 5911 5909 5907 5905 5904 5903 5901 5901 5900 5899 5899 5898 5898 5897 5898 5898 5899 5899 5899 5900 5900 5901 5901 5901 5901 5902
5944 5944 5945 5945 5945 5945 5944 5944 5943 5941 5939 5938 5936 5934 5932 5930 5928 5925 5923 5922 5920 5918 5915 5913 5910 5908 5906 5905 5903 5902 5902 5901 5900 5899 5898 5897 5897 5897 5898 5898 5898 5899 5899 5899 5900 5900 5900 5900 5900
5941 5942 5943 5944 5944 5944 5943 5943 5942 5940 5940 5939 5937 5935 5933 5931 5929 5926 5925 5923 5920 5919 5916 5914 5911 5909 5907 5905 5904 5903 5902 5901 5900 5899 5898 5898 5897 5897 5897 5897 5898 5898 5898 5898 5898 5899 5899 5899 5899
5939 5940 5942 5943 5942 5942 5942 5941 5941 5940 5939 5938 5937 5935 5933 5932 5930 5927 5926 5924 5921 5919 5917 5915 5912 5910 5908 5906 5904 5903 5902 5901 5900 5899 5898 5897 5897 5896 5896 5897 5897 5897 5897 5897 5897 5897 5897 5897 5898
5938 5939 5940 5941 5941 5941 5941 5941 5940 5939 5938 5937 5937 5935 5934 5931 5930 5928 5927 5925 5922 5920 5917 5915 5913 5911 5908 5906 5904 5903 5901 5900 5899 5899 5898 5897 5896 5896 5896 5896 5896 5895 5895 5895 5895 5895 5895 5895 5896
5935 5937 5937 5938 5939 5939 5940 5939 5939 5937 5936 5936 5936 5935 5933 5932 5930 5928 5927 5925 5922 5920 5917 5915 5913 5911 5908 5906 5904 5902 5901 5900 5899 5898 5897 5896 5896 5895 5895 5894 5894 5894 5894 5894 5893 5893 5893 5893 5893
5932 5933 5935 5936 5937 5938 5938 5938 5938 5935 5935 5935 5935 5934 5932 5931 5930 5927 5926 5924 5922 5919 5917 5915 5913 5910 5908 5906 5903 5901 5900 5899 5898 5897 5896 5895 5895 5894 5893 5893 5893 5892 5892 5892 5892 5892 5891 5891 5891
5929 5931 5932 5933 5934 5935 5936 5935 5935 5934 5933 5933 5933 5932 5931 5930 5928 5926 5925 5922 5920 5918 5916 5914 5913 5910 5907 5905 5903 5901 5899 5898 5897 5896 5895 5894 5894 5893 5892 5892 5891 5891 5890 5890 5890 5889 5889 5888 5888
5925 5927 5929 5930 5931 5932 5932 5931 5932 5932 5931 5931 5931 5930 5929 5928 5926 5924 5923 5921 5919 5917 5915 5913 5911 5909 5907 5904 5902 5900 5899 5897 5896 5895 5895 5894 5893 5892 5891 5890 5889 5889 5888 5888 5887 5887 5886 5886 5885
5921 5923 5926 5927 5928 5929 5929 5928 5929 5929 5929 5928 5928 5927 5926 5926 5925 5924 5922 5920 5918 5916 5914 5912 5910 5908 5906 5904 5901 5899 5898 5896 5895 5894 5893 5892 5891 5891 5889 5889 5888 5887 5886 5885 5885 5884 5883 5883 5882
5917 5919 5921 5923 5923 5924 5925 5925 5925 5925 5925 5925 5925 5924 5923 5923 5923 5922 5921 5919 5917 5915 5913 5910 5908 5907 5905 5902 5900 5898 5896 5895 5894 5893 5891 5891 5890 5889 5888 5887 5886 5885 5884 5883 5882 5881 5880 5880 5879
5913 5915 5917 5918 5919 5919 5921 5921 5922 5921 5922 5922 5921 5920 5921 5921 5920 5919 5918 5917 5915 5913 5911 5908 5906 5904 5902 5900 5898 5896 5894 5893 5892 5891 5890 5889 5888 5887 5886 5885 5884 5883 5882 5881 5880 5878 5877 5876 5875
5908 5910 5911 5913 5914 5915 5916 5919 5918 5917 5917 5918 5918 5918 5918 5918 5917 5917 5916 5915 5913 5911 5908 5906 5904 5902 5900 5898 5896 5894 5893 5891 5890 5889 5888 5887 5886 5885 5883 5882 5881 5880 5878 5877 5876 5875 5874 5873 5871
5902 5905 5907 5908 5910 5911 5911 5915 5914 5914 5914 5914 5915 5914 5915 5914 5914 5914 5913 5912 5910 5908 5906 5903 5901 5900 5898 5896 5894 5892 5891 5889 5888 5887 5886 5885 5884 5882 5881 5879 5878 5877 5875 5873 5872 5871 5869 5868 5867